Find Starlink 35645

NORAD ID: 66124 Int'l Des: 2025-237 Owner: SPXS Country: US Constellation: starlink operational
LEOCIRCULAR

現在のビュー

3D地球を読み込み中...

Starlink 35645について

説明を読み込み中...

次回通過

Passes for default location (London). Set your location on the main map for personalized predictions.

高度履歴

Loading altitude history...

軌道要素

1 66124U 25237L 26146.42999725 .00026254 00000-0 89532-3 0 9993
2 66124 53.1608 38.4730 0001315 93.5947 266.5204 15.30203479 34518
Epoch: May 26, 2026 • Age: 12 hours

現在のステータス

高度 486.6 km
速度 7.62 km/s
衛星直下点 -34.18°S, 141.17°E
打ち上げ日 Oct 22, 2025
運用期間 0.5 years
タイプ internet

技術仕様

分類 Payload
質量 575.00 kg
乾燥質量 530.00 kg
総質量 575.00 kg
長さ 0.30 m
直径 4.10 m
スパン 29.00 m
形状 Box + pan
製造者 SPXS
バスタイプ Starlink V2MO
フェーズステータス In Orbit
所有者/国 SPXS/US

Most Searched